Other Public Products
Issued by NWS Grand Forks, ND

Home | Current Version | Previous Version | Graphics & Text | Print | Product List | Glossary On
Versions: 1 2 3 4 5 6 7 8 9 10 11 12 13 14 15 16 17 18 19 20 21 22 23 24 25 26 27 28 29 30 31 32 33 34 35 36 37 38 39 40 41 42 43 44 45 46 47 48 49 50
000
FPUS83 KFGF 262031
OPUFGF
PRAIRIE TO PINES WEATHER ROUNDUP
NATIONAL WEATHER SERVICE EASTERN NORTH DAKOTA/GRAND FORKS ND
200 PM CST WED NOV 26 2014

 **SATELLITE DATA USED TO AUGMENT SKY COVER AT AUTOMATED STATIONS**
 *****  WEATHER ACROSS EASTERN NORTH DAKOTA  *****

CITY           SKY/WX    TMP DP  RH WIND       PRES   REMARKS
GRAND FORKS    MOSUNNY    4  -6  63 N14       30.46R WCI -14
GRAND FORKS AF FLURRIES   3  -6  66 N9        30.46S WCI -11
GRAND CITY NWS   N/A      1 N/A N/A N10         N/A  WCI -14
BUXTON           N/A      4  -3  72 N12         N/A  WCI -12
DEVILS LAKE    SUNNY      1 -13  51 N10       30.40R WCI -14
FARGO          CLOUDY     5  -4  66 N17       30.43R WCI -14
WAHPETON ARPT  MOCLDY     7  -2  66 N17G24    30.39R WCI -12
$$

 *****  WEATHER ACROSS CENTRAL AND WESTERN NORTH DAKOTA  *****

CITY           SKY/WX    TMP DP  RH WIND       PRES   REMARKS
JAMESTOWN      PTSUNNY    3  -5  69 N10       30.39R WCI -12
BISMARCK       CLOUDY    11   3  70 E3        30.39S
MINOT          SUNNY      4  -4  69 NW7       30.40S WCI  -8
MINOT AFB      MOSUNNY    3  -4  72 N8        30.41S WCI -10
GARRISON         N/A      7   1  76 N7        30.37S WCI  -5
WILLISTON      PTSUNNY   11   3  70 N7        30.36F WCI   0
DICKINSON      CLOUDY    21  13  71 NW5       30.26S WCI  15
HETTINGER      LGT SNOW  21  16  81 NE12      30.27S WCI   9
$$

 *****  OTHER OBSERVATIONS NORTHEAST NORTH DAKOTA  *****

CITY           SKY/WX    TMP DP  RH WIND       PRES   REMARKS
WALHALLA         N/A      0  -8  71 N12       30.48S WCI -18
LANGDON        FAIR       1  -8  66 N10       30.39S WCI -14
CAVALIER       FAIR       0  -8  71 N13       30.48S WCI -18
GRAFTON        FAIR       0  -8  71 N16       30.49R WCI -21
CANDO          FAIR       1  -8  66 N9        30.43S WCI -14
FORT TOTTEN      N/A      4  -8  58 N5        29.95S WCI  -5
ROLLA          FAIR       0  -8  71 N9        30.39S WCI -16
RUGBY          FAIR       1  -6  71 CALM      30.42S
 ***** THE ABOVE OBSERVATIONS ARE NON NWS ARE NOT QUALITY
        CONTROLLED AND MAY MIS-REPORT RAIN FOR SNOW...
$$

 *****  OTHER OBSERVATIONS SOUTHEAST NORTH DAKOTA *****

CITY           SKY/WX    TMP DP  RH WIND       PRES   REMARKS
COOPERSTOWN    NOT AVBL
VALLEY CITY    MOCLDY     3  -6  66 N10       30.41R WCI -12
OAKES            N/A      7  -2  66 N13       30.40R WCI  -9
GWINNER        PTCLDY     9  -4  56 N15       30.41R WCI  -8
BUFFALO        NOT AVBL
WYNDMERE         N/A      7  -2  66 N13         N/A  WCI  -9
 ***** THE ABOVE OBSERVATIONS ARE NON NWS ARE NOT QUALITY
       CONTROLLED AND MAY MIS-REPORT RAIN FOR SNOW...
$$

  *****  WEATHER ACROSS NORTHERN MINNESOTA  *****

CITY           SKY/WX    TMP DP  RH WIND       PRES   REMARKS
FLAG ISLAND    SUNNY      0  -9  65 NW10      30.38R WCI -17
WARROAD        SUNNY      1  -8  66 NW6       30.39S WCI -10
ROSEAU         SUNNY      3  -9  55 N6        30.41R WCI  -8
HALLOCK        SUNNY      0  -9  65 N12       30.47R WCI -18
THF RVR FALLS  SUNNY      1  -8  66 NW12      30.40R WCI -15
HALSTAD          N/A      4  -4  71 N17         N/A  WCI -16
FOSSTON        SUNNY      7  -6  56 NW10      30.37R WCI  -8
BAUDETTE       SUNNY      0  -9  65 NW13      30.35R WCI -18
WASKISH        SUNNY      7  -2  66 CALM      30.34R
CROOKSTON      SUNNY      1  -4  78 N16       30.45S WCI -18
$$
  *****  WEATHER ACROSS CENTRAL AND WEST MINNESOTA  *****

CITY           SKY/WX    TMP DP  RH WIND       PRES   REMARKS
BEMIDJI        SUNNY      7  -7  51 N10       30.30R WCI  -7
PARK RAPIDS    PTSUNNY   12  -1  56 N12       30.26R WCI  -2
WADENA         CLOUDY    16   3  57 N12       30.26S WCI   3
DETROIT LAKES  MOSUNNY    9   1  72 N18       30.34R WCI -10
MOORHEAD       MOSUNNY    3  -2  78 N18       30.43R WCI -17
FERGUS FALLS   MOSUNNY    9  -2  61 N14G23    30.38R WCI  -8
ELBOW LAKE     MOCLDY    12   3  69 N17G23    30.31R WCI  -5
MORRIS MN      PTSUNNY   12   7  79 NW17G25   30.30R WCI  -5
STAPLES        CLOUDY    16   7  67 N13       30.26R WCI   2
WHEATON        MOSUNNY    7   1  78 NW17G24   30.38R WCI -12
$$
  *****  WEATHER ELSEWHERE ACROSS MINNESOTA  *****

CITY           SKY/WX    TMP DP  RH WIND       PRES   REMARKS
DULUTH         LGT SNOW  18   8  65 NW13      30.17S WCI   5
INTRNTL FALLS  SUNNY      7  -5  57 N10       30.31R WCI  -8
ELY            PTSUNNY   12   3  67 N6        30.20R WCI   3
CLOQUET        CLOUDY    19   9  63 NW9       30.20R WCI   9
BRAINERD       MOSUNNY   17   7  64 N15       30.24R WCI   2
HIBBING        PTSUNNY   15   3  59 NW13      30.22R WCI   1
ALEXANDRIA     PTSUNNY   18   9  68 NW9G18    30.24R WCI   7
SAINT CLOUD    MOSUNNY   24  14  65 N10       30.23R WCI  14
MINNEAPOLIS    CLOUDY    25  19  78 N10       30.20R WCI  15
$$

  *****  WEATHER ACROSS SOUTH DAKOTA  *****

CITY           SKY/WX    TMP DP  RH WIND       PRES   REMARKS
SIOUX FALLS    PTSUNNY   20  13  74 N15       30.26R WCI   6
BROOKINGS      NOT AVBL
WATERTOWN      SUNNY     10   3  73 N17       30.28R WCI  -8
HURON          SUNNY     13   4  67 N13       30.36S WCI  -2
SISSETON         N/A      8  -1  66 N21       30.35R WCI -12
ABERDEEN       CLOUDY     9  -2  61 N14       30.40R WCI  -7
MITCHELL       SUNNY     16   8  71 N18G25    30.36R WCI   0
PIERRE         CLOUDY    21  12  68 N5        30.34R WCI  15
MOBRIDGE       CLOUDY    15   8  73 NE8       30.34R WCI   4
RAPID CITY     CLOUDY    29  23  78 S6        30.22F WCI  23
$$

  *****  SOME WEATHER IN NEARBY STATES *****

CITY           SKY/WX    TMP DP  RH WIND       PRES   REMARKS
GLASGOW MT     CLOUDY    23  16  74 SE12      30.27F WCI  12
GREAT FALLS MT SNOW      28  28 100 E12       30.10F VSB 1/2 WCI  18
CHEYENNE WY    MOSUNNY   30  23  75 S7        30.10F WCI  23
SCOTTSBLUFF NE CLOUDY    30  28  92 SW3       30.23R
OMAHA NE       CLOUDY    29  22  75 N23G37    30.17R WCI  15
DES MOINES IA  FLURRIES  32  27  81 NE12      30.02R WCI  23
DAVENPORT IA   CLOUDY    28  22  78 E15       30.06S WCI  16
CHICAGO IL     CLOUDY    28  20  71 E8        30.10S WCI  20
EAU CLAIRE WI  LGT SNOW  25  19  78 N5        30.17S WCI  19
LA CROSSE WI   CLOUDY    29  20  69 NW7       30.15S WCI  22
$$

  *****  SOME NATIONAL WEATHER *****

CITY           SKY/WX    TMP DP  RH WIND       PRES   REMARKS
LA GUARDIA NY  RAIN      36  34  93 NE13      29.86S FOG
RALEIGH NC     CLOUDY    43  38  82 VRB7      29.97R
ATLANTA GA     MOSUNNY   56  20  24 W15G21    30.07S
NEW ORLEANS LA MOSUNNY   69  34  27 SW16G25   30.19F
OKLAHOMA CITY  PTSUNNY   56  29  35 NW17G28   30.20R
ALBUQUERQUE NM MOSUNNY   55  19  24 NE6       30.35F
SALT LAKE CITY MOSUNNY   57  30  35 VRB3      30.37F
LOS ANGELES CA SUNNY     76  29  17 W7        30.18F
BOISE ID       CLOUDY    57  42  57 SE5       30.29F
SEATTLE WA     CLOUDY    57  52  83 SW7       30.09F
$$

*** WEATHER ACROSS MANITOBA...SASKATCHEWAN AND ONTARIO ***
                ***ONTARIO***

CITY           SKY/WX    TMP DP  RH WIND       PRES   REMARKS
GERALDTON      PTSUNNY    0  -8  71 N6        30.24R WCI -12
THUNDER BAY    PTSUNNY   14   5  67 N7        30.24S WCI   4
SIOUX LOOKOUT  MOSUNNY    0 -13  55 N5        30.31R WCI -10
TORONTO        CLOUDY    34  27  75 E8        30.13F
BIG TROUT LK   CLEAR    -13 -20  70 W8        30.31S WCI -30
PICKLE LAKE    CRYSTALS  -8 -17  65 W5        30.29R WCI -19
DRYDEN         SUNNY      0  -9  65 NW7       30.31R WCI -13
KENORA         MOSUNNY   -2 -11  65 NW9       30.33F WCI -18
$$
                *** MANITOBA***

CITY           SKY/WX    TMP DP  RH WIND       PRES   REMARKS
BRANDON        MOSUNNY    1  -8  66 NW6       30.45S WCI -10
DAUPHIN        SUNNY     -4 -13  65 W2        30.50F
ISLAND LAKE    MOSUNNY   -9 -18  64 W10       30.39R WCI -28
PILOT MOUND      N/A     -2  -9  71 NW8         N/A  WCI -17
THE PAS        MOSUNNY   -6 -13  71 W6        30.48R WCI -18
THOMPSON       MOSUNNY   -9 -18  64 W5        30.40S WCI -21
WINNIPEG       CRYSTALS  -4 -13  65 N9        30.50S WCI -20
LYNN LAKE      CLEAR     -6 -13  71 W6        30.32F WCI -18
CHURCHILL      PTCLDY    -8 -15  71 W10       30.26S WCI -26
GILLAM         CLEAR    -11 -18  70 W8        30.35  WCI -28
$$
                ***SASKATCHEWAN***

CITY           SKY/WX    TMP DP  RH WIND       PRES   REMARKS
ESTEVAN        MOSUNNY    3  -4  72 E3        30.39F
KINDERSLEY     CLOUDY    14   9  79 S10       30.25F WCI   1
LLOYDMINSTER   LGT SNOW   5   1  85 SE9       30.23F WCI  -9
PRINCE ALBERT  MOSUNNY   -6 -11  77 NE5       30.42F WCI -17
REGINA         MOSUNNY    1  -4  78 S7        30.40S WCI -11
YORKTON        SUNNY     -4  -9  77 W5        30.44R WCI -15


USA.gov is the U.S. government's official web portal to all federal, state and local government web resources and services.